DW9162 Weather Reports


time (UTC)temp
F
wind
direction
speed
knots
gust
knots
rain 1hr
in
rain 24hr
in
rain mn
in
humidity
%
barometer
mb
20260504180020 74 287 0.0 0.0 0.00 0.00 0.00 47 1016.3
20260504174515 73 287 0.0 0.0 0.00 0.00 0.00 46 1016.3
20260504173011 72 287 0.0 0.0 0.00 0.00 0.00 47 1016.7
20260504171524 72 287 0.0 0.0 0.00 0.00 0.00 48 1016.7
20260504081531 48 242 0.0 0.0 0.00 0.00 0.00 13 1017.6
20260504044603 52 242 0.0 0.0 0.00 0.00 0.00 41 1018.5
20260504043055 52 242 0.0 0.0 0.00 0.00 0.00 43 1018.5
20260504041554 52 242 0.0 0.0 0.00 0.00 0.00 47 1018.5
20260504040050 53 242 0.0 0.0 0.00 0.00 0.00 48 1018.5
20260504034605 53 242 0.0 0.0 0.00 0.00 0.00 50 1018.4
20260504033042 54 242 0.0 0.0 0.00 0.00 0.00 53 1018.5
20260504031537 54 242 0.0 0.0 0.00 0.00 0.00 54 1018.5
20260504030040 54 242 0.0 0.0 0.00 0.00 0.00 58 1018.5
20260504024529 55 242 0.0 0.0 0.00 0.00 0.00 59 1018.5
20260504023024 56 242 0.0 0.0 0.00 0.00 0.00 60 1018.4
20260504021523 56 241 0.0 0.0 0.00 0.00 0.00 61 1018.2
20260504020018 57 241 0.0 0.0 0.00 0.00 0.00 61 1018.1
20260504014511 58 241 0.0 0.0 0.00 0.00 0.00 61 1017.8
20260504013009 59 242 0.0 0.0 0.00 0.00 0.00 60 1017.7
20260504011503 60 241 0.0 0.0 0.00 0.00 0.00 59 1017.6
20260504010100 61 241 0.0 0.0 0.00 0.00 0.00 58 1017.5
20260504004553 63 241 0.0 0.0 0.00 0.00 0.00 55 1017.4
20260504003053 64 241 0.0 0.0 0.00 0.00 0.00 53 1017.2
20260504001545 65 241 0.0 0.0 0.00 0.00 0.00 49 1017.1
20260504000043 65 241 0.0 0.0 0.00 0.00 0.00 47 1017.1
20260503234545 66 241 0.0 0.0 0.00 0.00 0.00 44 1017.1
20260503233032 67 242 0.0 0.0 0.00 0.00 0.00 42 1017.1
20260503231528 67 242 0.0 0.0 0.00 0.00 0.00 40 1017.2
20260503230022 67 242 0.0 0.0 0.00 0.00 0.00 39 1017.3
20260503224518 67 242 0.0 0.0 0.00 0.00 0.00 39 1017.3
20260503223014 68 242 0.0 0.0 0.00 0.00 0.00 41 1017.4
20260503221510 68 242 0.0 0.0 0.00 0.00 0.00 39 1017.4
20260503220019 68 242 0.0 0.0 0.00 0.00 0.00 40 1017.4
20260503214500 68 241 0.0 0.0 0.00 0.00 0.00 41 1017.5
20260503213110 68 241 0.0 0.0 0.00 0.00 0.00 40 1017.6
20260503211553 68 241 0.0 0.0 0.00 0.00 0.00 37 1017.7
20260503210100 68 240 0.0 0.0 0.00 0.00 0.00 39 1017.7
20260503204543 68 240 0.0 0.0 0.00 0.00 0.00 40 1017.9
20260503203039 67 240 0.0 0.0 0.00 0.00 0.00 41 1018.2
20260503201535 67 240 0.0 0.0 0.00 0.00 0.00 39 1018.5
20260503200030 67 237 0.0 0.0 0.00 0.00 0.00 42 1018.7
20260503194525 66 237 0.0 0.0 0.00 0.00 0.00 44 1019.1
20260503193021 66 237 0.0 0.0 0.00 0.00 0.00 46 1019.3
20260503191520 66 237 0.0 0.0 0.00 0.00 0.00 46 1019.6
20260503190012 66 236 0.0 0.0 0.00 0.00 0.00 49 1019.6
20260503184508 66 236 0.0 0.0 0.00 0.00 0.00 47 1019.9
20260503183004 66 223 0.0 0.0 0.00 0.00 0.00 49 1020.0
20260503181609 65 223 0.0 0.0 0.00 0.00 0.00 48 1020.1